Stations météo

Publicité
Le Luc, France (7675): Température de l'air & dewpoint: 14.07.2018 01:00:00 - 20.07.2018 01:00:00 (CEST)Le Luc, France (7675): Température de l'air 5cm: 14.07.2018 01:00:00 - 20.07.2018 01:00:00 (CEST)Le Luc, France (7675): Vitesse du vent & gusts: 14.07.2018 01:00:00 - 20.07.2018 01:00:00 (CEST)Le Luc, France (7675): Direction du vent: 14.07.2018 01:00:00 - 20.07.2018 01:00:00 (CEST)Le Luc, France (7675): reduced air pressure: 14.07.2018 01:00:00 - 20.07.2018 01:00:00 (CEST)Le Luc, France (7675): visibility: 14.07.2018 01:00:00 - 20.07.2018 01:00:00 (CEST)Le Luc, France (7675): Ensoleillement: 14.07.2018 01:00:00 - 20.07.2018 01:00:00 (CEST)Le Luc, France (7675): Quantités de précipitations: 14.07.2018 01:00:00 - 20.07.2018 01:00:00 (CEST)
Date & Time tt [°C] td [°C] tt 5cm [°C] ff [km/h] ff [knt] fx [km/h] fx [knt] dd ppp [hPa] vv [km] sd [min] rr [mm]
20.07.2018 01:00:00 21,6 18,2 19,4 4 2 7 4 SW 1014,2 20 0 0,0
20.07.2018 00:00:00 22,7 18,5 20,7 2 1 9 5 SW 1014,1 20 0 0,0
19.07.2018 23:00:00 24,6 17,8 22,4 3 2 11 6 WNW 1013,6 20 0 0,0
19.07.2018 22:00:00 25,0 18,4 23,2 4 2 9 5 N 1013,5 20 0 0,0
19.07.2018 21:00:00 26,3 19,9 25,4 7 4 22 12 N 1013,1 20 46 0,0
19.07.2018 20:00:00 28,6 19,8 28,6 14 8 22 12 NE 1012,6 25 60 0,0
19.07.2018 19:00:00 30,8 19,2 34,0 13 7 21 12 WSW 1012,3 25 60 0,0
19.07.2018 18:00:00 31,7 18,7 37,2 16 8 30 16 W 1012,2 25 60 0,0
19.07.2018 17:00:00 32,6 19,5 39,3 15 8 29 16 WSW 1011,9 25 60 0,0
19.07.2018 16:00:00 32,3 21,8 34,4 17 9 30 16 SE 1012,1 25 44 0,0
19.07.2018 15:00:00 31,9 21,1 36,9 18 10 28 15 ESE 1012,5 25 56 0,0
19.07.2018 14:00:00 32,8 17,0 39,9 9 5 19 10 ENE 1012,9 25 60 0,0
19.07.2018 13:00:00 31,9 17,4 40,0 5 3 14 8 NNW 1013,3 25 60 0,0
19.07.2018 12:00:00 30,4 16,4 37,8 5 3 12 6 NNE 1013,7 25 60 0,0
19.07.2018 11:00:00 28,7 17,9 35,7 4 2 10 6 SSW 1013,9 25 60 0,0
19.07.2018 10:00:00 26,9 17,9 31,4 4 2 15 8 SE 1014,0 20 60 0,0
19.07.2018 09:00:00 25,0 16,7 25,5 0 0 8 4 N 1014,2 25 60 0,0
19.07.2018 08:00:00 21,7 15,8 19,4 0 0 6 3 N 1014,0 25 51 0,0
19.07.2018 07:00:00 19,6 15,7 17,3 4 2 6 3 W 1013,7 25 25 0,0
19.07.2018 06:00:00 19,5 15,2 16,8 2 1 9 5 S 1013,4 20 0 0,0
19.07.2018 05:00:00 21,7 14,8 19,5 6 4 11 6 W 1012,8 20 0 0,0
19.07.2018 04:00:00 22,2 14,3 20,2 6 4 12 7 SW 1012,9 20 0 0,0
19.07.2018 03:00:00 23,1 14,4 21,5 7 4 19 11 SW 1013,2 20 0 0,0
19.07.2018 02:00:00 23,8 13,9 22,2 11 6 19 11 WSW 1013,8 20 0 0,0
19.07.2018 01:00:00 24,3 13,5 22,7 8 4 15 8 SW 1014,6 20 0 0,0
19.07.2018 00:00:00 25,7 13,2 23,0 8 5 19 10 SW 1015,0 20 0 0,0
18.07.2018 23:00:00 24,5 16,2 22,5 5 3 13 7 WSW 1014,6 20 0 0,0
18.07.2018 22:00:00 25,9 20,0 23,7 4 2 16 9 NNW 1013,8 20 0 0,0
18.07.2018 21:00:00 27,0 18,0 25,4 6 4 14 7 NNW 1012,9 20 7 0,0
18.07.2018 20:00:00 30,5 14,6 30,0 10 5 16 9 W 1012,4 35 60 0,0
18.07.2018 19:00:00 31,2 18,2 34,9 7 4 24 13 SSW 1012,2 35 60 0,0
18.07.2018 18:00:00 31,7 21,2 33,7 13 7 25 13 SE 1012,4 35 35 0,0
18.07.2018 17:00:00 32,5 20,4 35,9 14 8 30 16 ESE 1012,5 35 54 0,0
18.07.2018 16:00:00 32,9 21,1 40,6 21 12 37 20 ESE 1012,6 35 60 0,0
18.07.2018 15:00:00 34,0 14,0 41,8 7 4 24 13 E 1012,9 35 60 0,0
18.07.2018 14:00:00 33,4 14,5 40,8 6 3 17 9 E 1013,5 35 60 0,0
18.07.2018 13:00:00 31,9 15,8 40,4 7 4 14 7 E 1014,1 20 60 0,0
18.07.2018 12:00:00 30,3 16,3 38,3 3 2 12 7 SSW 1014,7 35 60 0,0
18.07.2018 11:00:00 28,5 15,8 34,7 4 2 16 8 N 1014,8 35 60 0,0
18.07.2018 10:00:00 26,0 15,4 29,6 3 1 18 10 E 1015,1 35 60 0,0
18.07.2018 09:00:00 23,2 16,3 22,8 0 0 5 3 N 1015,3 35 60 0,0
18.07.2018 08:00:00 19,3 16,0 16,7 2 1 6 3 WNW 1015,0 35 60 0,0
18.07.2018 07:00:00 17,5 15,8 14,7 0 0 3 2 N 1014,9 25 26 0,0
18.07.2018 06:00:00 16,5 15,4 14,9 0 0 5 3 N 1014,5 20 0 0,0
18.07.2018 05:00:00 17,3 15,8 15,4 3 2 4 2 W 1014,1 20 0 0,0
18.07.2018 04:00:00 17,7 16,2 15,9 0 0 4 2 N 1014,0 20 0 0,0
18.07.2018 03:00:00 18,3 16,3 16,6 0 0 6 4 N 1014,0 20 0 0,0
18.07.2018 02:00:00 19,2 17,0 17,2 4 2 8 5 WNW 1014,3 20 0 0,0
18.07.2018 01:00:00 20,4 17,4 18,1 0 0 6 3 N 1014,2 20 0 0,0
18.07.2018 00:00:00 22,1 17,2 19,7 4 2 8 4 WSW 1014,0 20 0 0,0
17.07.2018 23:00:00 23,7 17,4 20,5 0 0 10 5 N 1013,4 20 0 0,0
17.07.2018 22:00:00 25,7 16,5 22,1 0 0 10 5 N 1013,1 20 0 0,0
17.07.2018 21:00:00 28,7 16,6 25,7 2 1 13 7 E 1012,3 20 45 0,0
17.07.2018 20:00:00 31,5 11,3 30,6 11 6 21 12 SE 1011,8 50 60 0,0
17.07.2018 19:00:00 32,6 11,7 36,8 12 6 22 12 SSE 1011,5 50 60 0,0
17.07.2018 18:00:00 33,2 9,9 39,2 17 9 27 15 ESE 1011,5 50 60 0,0
17.07.2018 17:00:00 33,4 11,9 41,2 15 8 22 12 ESE 1011,6 50 60 0,0
17.07.2018 16:00:00 32,9 13,5 42,0 10 5 20 11 E 1012,0 50 60 0,0
17.07.2018 15:00:00 32,3 14,9 41,5 9 5 16 9 ESE 1012,2 19 60 0,0
17.07.2018 14:00:00 31,5 14,6 39,6 8 4 18 10 E 1012,3 50 60 0,0
17.07.2018 13:00:00 30,3 14,4 39,4 8 5 21 11 ENE 1012,5 50 60 0,0
17.07.2018 12:00:00 29,3 15,8 37,5 5 3 13 7 NNE 1012,5 50 60 0,0
17.07.2018 11:00:00 27,6 17,7 34,6 0 0 9 5 N 1012,5 50 60 0,0
17.07.2018 10:00:00 25,9 16,4 30,2 3 2 10 5 NNE 1012,3 50 60 0,0
17.07.2018 09:00:00 23,9 16,9 23,9 3 1 6 4 N 1012,3 50 60 0,0
17.07.2018 08:00:00 20,4 16,6 17,3 4 2 6 3 E 1012,2 50 60 0,0
17.07.2018 07:00:00 17,1 15,6 15,4 0 0 8 4 N 1012,0 50 27 0,0
17.07.2018 06:00:00 16,8 15,3 15,3 4 2 22 12 ESE 1011,7 20 0 0,0
17.07.2018 05:00:00 19,7 14,7 17,4 13 7 23 12 WSW 1011,3 20 0 0,0
17.07.2018 04:00:00 19,3 15,6 17,3 13 7 25 14 WSW 1011,0 20 0 0,0
17.07.2018 03:00:00 19,1 16,3 17,2 11 6 19 10 WSW 1011,2 20 0 0,0
17.07.2018 02:00:00 18,7 16,7 17,2 6 3 24 13 SSW 1011,3 20 0 0,0
17.07.2018 01:00:00 18,1 16,6 16,8 8 4 16 9 SW 1011,3 20 0 0,0
17.07.2018 00:00:00 18,5 16,5 16,8 12 7 19 11 W 1011,0 20 0 0,0
16.07.2018 23:00:00 17,8 16,3 16,8 6 4 14 8 SW 1011,1 20 0 0,0
16.07.2018 22:00:00 17,7 16,7 17,0 4 2 13 7 S 1011,0 20 0 0,0
16.07.2018 21:00:00 17,9 16,9 17,4 5 3 15 8 SSW 1010,2 20 22 0,0
16.07.2018 20:00:00 18,2 17,0 17,6 12 6 17 9 W 1010,1 30 0 0,0
16.07.2018 19:00:00 17,5 16,7 16,8 10 5 19 10 W 1009,7 4,0 0 2,5
16.07.2018 18:00:00 16,8 16,5 16,5 4 2 15 8 SW 1009,7 7 0 5,0
16.07.2018 17:00:00 16,7 16,2 16,3 10 5 24 13 E 1009,3 6 0 5,5
16.07.2018 16:00:00 16,7 15,7 16,3 16 9 56 30 NNE 1009,9 20 0 12,7
16.07.2018 15:00:00 24,1 21,0 22,2 8 5 33 18 E 1008,3 20 0 1,2
16.07.2018 14:00:00 26,3 19,7 26,8 19 11 33 18 E 1009,3 20 0 0,0
16.07.2018 13:00:00 27,3 20,1 29,2 15 8 30 16 E 1009,7 20 0 0,0
16.07.2018 12:00:00 27,9 19,7 29,7 22 12 36 19 E 1009,7 20 14 0,0
16.07.2018 11:00:00 27,3 21,1 25,6 16 9 28 15 E 1010,1 20 19 0,0
16.07.2018 10:00:00 24,2 18,4 23,5 6 3 10 6 E 1010,5 20 0 0,0
16.07.2018 09:00:00 22,0 17,8 22,1 3 2 10 6 SW 1011,0 20 0 0,0
16.07.2018 08:00:00 21,5 17,3 20,0 5 3 8 5 ESE 1011,5 29 0 0,0
16.07.2018 07:00:00 20,1 16,3 19,8 3 2 6 4 NE 1011,9 20 0 0,0
16.07.2018 06:00:00 20,9 17,1 19,9 3 2 11 6 WSW 1012,3 20 0 0,0
16.07.2018 05:00:00 21,2 16,8 18,9 4 2 7 4 SW 1012,2 20 0 0,0
16.07.2018 04:00:00 22,5 16,5 21,0 3 2 18 10 SSE 1012,9 20 0 0,0
16.07.2018 03:00:00 22,7 16,3 21,1 12 6 16 9 WNW 1012,9 20 0 0,0
16.07.2018 02:00:00 23,4 16,4 21,4 9 5 22 12 WSW 1012,7 20 0 0,0
16.07.2018 01:00:00 22,7 18,0 21,3 5 3 15 8 SSW 1012,7 20 0 0,0
16.07.2018 00:00:00 24,0 19,3 22,7 6 3 17 9 WSW 1012,5 20 0 0,0
15.07.2018 23:00:00 24,8 19,0 23,5 7 4 30 16 NW 1012,7 20 0 0,0
15.07.2018 22:00:00 26,5 18,1 25,2 10 6 27 15 W 1012,4 20 0 0,0
15.07.2018 21:00:00 28,1 16,4 27,4 17 9 32 17 WSW 1011,8 20 34 0,0
15.07.2018 20:00:00 30,3 12,7 30,0 16 9 38 20 WSW 1011,2 20 60 0,0
15.07.2018 19:00:00 31,9 11,7 34,3 22 12 40 22 WSW 1011,2 20 60 0,0
15.07.2018 18:00:00 33,1 11,0 38,1 22 12 42 23 WSW 1011,5 20 60 0,0
15.07.2018 17:00:00 33,7 12,7 38,8 20 11 41 22 SW 1011,7 20 60 0,0
15.07.2018 16:00:00 34,1 11,9 41,0 22 12 41 22 SW 1012,0 20 60 0,0
15.07.2018 15:00:00 35,2 15,0 41,4 15 8 35 19 SW 1012,4 20 58 0,0
15.07.2018 14:00:00 35,4 15,7 41,6 12 6 28 15 W 1012,6 20 55 0,0
15.07.2018 13:00:00 34,5 14,4 42,6 15 8 31 17 W 1013,3 20 60 0,0
15.07.2018 12:00:00 32,7 16,5 42,1 5 3 12 7 N 1013,3 20 60 0,0
15.07.2018 11:00:00 30,9 17,9 37,2 5 3 15 8 WSW 1013,8 19 60 0,0
15.07.2018 10:00:00 28,8 18,6 32,2 8 4 22 12 WSW 1014,1 20 60 0,0
15.07.2018 09:00:00 26,4 16,9 22,5 10 5 17 9 SW 1014,7 20 58 0,0
15.07.2018 08:00:00 20,2 15,8 19,7 6 3 8 5 SE 1015,3 20 27 0,0
15.07.2018 07:00:00 19,1 15,4 15,9 0 0 3 2 N 1014,8 20 29 0,0
15.07.2018 06:00:00 17,9 14,8 15,7 0 0 3 2 N 1014,7 20 0 0,0
15.07.2018 05:00:00 18,8 14,9 16,1 0 0 4 2 N 1014,3 20 0 0,0
15.07.2018 04:00:00 19,1 15,4 16,9 2 1 4 2 SE 1014,5 20 0 0,0
15.07.2018 03:00:00 19,7 15,3 18,2 2 1 5 3 ENE 1014,8 20 0 0,0
15.07.2018 02:00:00 21,3 15,4 18,8 0 0 3 2 N 1015,0 20 0 0,0
15.07.2018 01:00:00 22,2 14,8 20,1 2 1 6 3 NW 1015,1 20 0 0,0
15.07.2018 00:00:00 23,9 14,6 20,8 0 0 5 3 N 1015,0 20 0 0,0
14.07.2018 23:00:00 24,6 14,1 22,0 4 2 5 3 NNW 1014,7 20 0 0,0
14.07.2018 22:00:00 26,4 13,5 24,0 0 0 6 4 N 1014,2 20 0 0,0
14.07.2018 21:00:00 28,5 13,6 27,5 4 2 16 9 E 1013,4 20 46 0,0
14.07.2018 20:00:00 30,3 14,0 30,5 10 6 22 12 E 1013,3 20 60 0,0
14.07.2018 19:00:00 31,6 13,8 35,2 15 8 22 12 SE 1013,5 20 60 0,0
14.07.2018 18:00:00 32,4 14,5 39,1 16 9 26 14 E 1013,8 20 60 0,0
14.07.2018 17:00:00 32,4 14,5 40,4 18 10 27 15 ESE 1014,2 20 60 0,0
14.07.2018 16:00:00 33,0 17,2 41,4 17 9 30 16 SE 1014,4 20 60 0,0
14.07.2018 15:00:00 32,9 16,3 42,1 19 10 29 15 SE 1014,8 20 60 0,0
14.07.2018 14:00:00 32,4 15,0 39,5 14 7 37 20 E 1015,1 20 60 0,0
14.07.2018 13:00:00 31,1 18,5 38,2 14 7 24 13 ESE 1015,3 20 60 0,0
14.07.2018 12:00:00 29,5 20,1 32,3 14 8 24 13 E 1015,6 20 60 0,0
14.07.2018 11:00:00 26,5 20,1 26,7 13 7 26 14 NE 1015,6 20 9 0,0
14.07.2018 10:00:00 25,1 18,5 24,4 5 3 12 7 ENE 1017,0 20 21 0,0
14.07.2018 09:00:00 23,1 19,5 20,9 9 5 14 8 E 1016,2 19 9 0,0
14.07.2018 08:00:00 20,8 19,5 20,0 3 1 9 5 E 1016,4 17 0 0,0
14.07.2018 07:00:00 20,8 19,6 19,3 3 1 8 4 ESE 1016,6 15 0 0,0
14.07.2018 06:00:00 20,1 19,1 19,3 4 2 9 5 NE 1016,8 12 0 0,0
14.07.2018 05:00:00 20,7 19,0 19,7 2 1 9 5 SW 1017,4 16 0 0,2
14.07.2018 04:00:00 21,5 18,5 20,7 0 0 7 4 N 1017,4 33 0 0,0
14.07.2018 03:00:00 21,4 18,6 19,8 6 4 10 5 WSW 1017,3 27 0 0,0
14.07.2018 02:00:00 20,6 18,4 19,7 4 2 6 3 ENE 1016,9 26 0 0,0
14.07.2018 01:00:00 22,4 18,8 20,3 3 1 5 3 NW 1017,6 35 0 0,0

tt = Température de l'air
td = dewpoint
tt 5cm = Température de l'air 5cm
ff = Vitesse du vent
fx = gusts
dd = Direction du vent
ppp = reduced air pressure
vv = visibility
sd = Ensoleillement
rr = Quantités de précipitations

stations d'obs. à proximité